GW3421 Weather Reports


time (UTC)temp
F
wind
direction
speed
knots
gust
knots
rain 1hr
in
rain 24hr
in
rain mn
in
humidity
%
barometer
mb
20260505130124 51 226 0.0 0.9 0.00 0.00 0.00 84 1016.5
20260505124613 49 312 0.0 0.0 0.00 0.00 0.00 88 1016.5
20260505124110 49 314 0.9 0.9 0.00 0.00 0.00 90 1016.8
20260505123606 48 333 0.0 0.0 0.00 0.00 0.00 91 1016.5
20260505123102 48 300 0.0 0.0 0.00 0.00 0.00 92 1016.5
20260505122559 48 308 0.0 0.0 0.00 0.00 0.00 92 1016.6
20260505122056 47 305 0.0 0.0 0.00 0.00 0.00 93 1016.6
20260505121547 46 286 0.0 0.0 0.00 0.00 0.00 93 1016.8
20260505121044 46 160 0.0 0.0 0.00 0.00 0.00 95 1016.6
20260505120540 45 158 0.0 0.0 0.00 0.00 0.00 96 1016.4
20260505120036 45 158 0.0 0.0 0.00 0.00 0.00 98 1016.3
20260505115531 45 159 0.0 0.0 0.00 0.00 0.00 99 1016.5
20260505115029 44 279 0.0 0.0 0.00 0.00 0.00 99 1016.3
20260505114525 43 190 0.0 0.0 0.00 0.00 0.00 99 1016.3
20260505114021 43 189 0.0 0.0 0.00 0.00 0.00 99 1016.2
20260505113518 43 188 0.0 0.0 0.00 0.00 0.00 99 1015.9
20260505113014 42 186 0.0 0.0 0.00 0.00 0.00 99 1015.9
20260505112510 43 176 0.0 0.0 0.00 0.00 0.00 99 1015.8
20260505112009 43 151 0.0 0.9 0.00 0.00 0.00 99 1015.8
20260505111502 43 156 0.0 0.9 0.00 0.00 0.00 99 1015.7
20260505110959 42 152 0.0 0.0 0.00 0.00 0.00 99 1015.7
20260505110455 42 152 0.0 0.0 0.00 0.00 0.00 99 1015.9
20260505101926 42 183 0.0 0.0 0.00 0.00 0.00 99 1015.7
20260505101421 43 183 0.0 0.0 0.00 0.00 0.00 99 1015.6
20260505100917 43 164 0.9 1.7 0.00 0.00 0.00 99 1015.9
20260505100414 43 164 0.9 1.7 0.00 0.00 0.00 99 1015.6
20260505095910 43 163 0.0 0.0 0.00 0.00 0.00 99 1015.6
20260505095407 43 157 0.0 0.0 0.00 0.00 0.00 98 1015.7
20260505094903 44 184 0.0 0.0 0.00 0.00 0.00 97 1015.9
20260505094400 44 152 0.0 0.9 0.00 0.00 0.00 97 1015.7
20260505093855 44 162 0.0 0.0 0.00 0.00 0.00 97 1015.7
20260505093353 44 140 0.0 0.0 0.00 0.00 0.00 98 1015.8
20260505092850 44 142 0.9 0.9 0.00 0.00 0.00 97 1015.8
20260505092348 45 135 0.9 0.9 0.00 0.00 0.00 95 1015.8
20260505091845 46 150 0.9 0.9 0.00 0.00 0.00 94 1015.5
20260505091343 45 154 0.9 0.9 0.00 0.00 0.00 95 1015.7
20260505090841 45 164 0.9 0.9 0.00 0.00 0.00 97 1015.8
20260505090339 45 152 0.0 0.0 0.00 0.00 0.00 96 1015.9
20260505085836 46 151 0.0 0.9 0.00 0.00 0.00 95 1015.7
20260505085334 46 165 0.9 0.9 0.00 0.00 0.00 94 1015.8
20260505084831 47 152 0.9 1.7 0.00 0.00 0.00 92 1015.7
20260505084330 47 148 0.9 0.9 0.00 0.00 0.00 91 1015.6
20260505083826 47 143 1.7 1.7 0.00 0.00 0.00 90 1015.7
20260505083324 47 156 0.9 0.9 0.00 0.00 0.00 91 1015.8
20260505082820 47 156 0.9 0.9 0.00 0.00 0.00 90 1015.8
20260505082317 48 157 0.9 0.9 0.00 0.00 0.00 90 1015.7
20260505081814 48 156 0.0 0.0 0.00 0.00 0.00 89 1015.7
20260505081310 48 156 0.9 0.9 0.00 0.00 0.00 90 1015.6
20260505080807 47 189 0.9 0.9 0.00 0.00 0.00 91 1015.5
20260505080303 47 176 0.0 0.0 0.00 0.00 0.00 92 1015.6
20260505075758 47 172 0.0 0.0 0.00 0.00 0.00 91 1015.5
20260505075255 49 159 0.9 0.9 0.00 0.00 0.00 87 1015.5
20260505074753 49 170 0.9 0.9 0.00 0.00 0.00 86 1015.4
20260505074250 50 150 1.7 1.7 0.00 0.00 0.00 83 1015.4
20260505073747 49 163 1.7 1.7 0.00 0.00 0.00 86 1015.4
20260505073245 49 170 1.7 1.7 0.00 0.00 0.00 85 1015.5
20260505072742 50 162 1.7 1.7 0.00 0.00 0.00 85 1015.6
20260505072238 50 150 1.7 1.7 0.00 0.00 0.00 82 1015.5
20260505071733 51 155 2.6 2.6 0.00 0.00 0.00 81 1015.4
20260505071231 49 154 1.7 1.7 0.00 0.00 0.00 87 1015.6
20260505070728 50 232 1.7 1.7 0.00 0.00 0.00 83 1015.5
20260505070224 50 170 2.6 2.6 0.00 0.00 0.00 84 1015.5
20260505065720 50 88 0.9 0.9 0.00 0.00 0.00 85 1015.2
20260505065217 50 146 3.5 4.3 0.00 0.00 0.00 84 1015.4
20260505064714 50 184 1.7 2.6 0.00 0.00 0.00 85 1015.4
20260505064212 50 174 1.7 2.6 0.00 0.00 0.00 84 1015.6
20260505063709 50 179 1.7 2.6 0.00 0.00 0.00 85 1015.4
20260505063205 50 149 1.7 1.7 0.00 0.00 0.00 84 1015.5
20260505062701 50 146 0.9 1.7 0.00 0.00 0.00 85 1015.5
20260505062200 50 152 1.7 2.6 0.00 0.00 0.00 83 1015.5
20260505061656 51 164 0.9 0.9 0.00 0.00 0.00 84 1015.6
20260505061154 50 168 1.7 1.7 0.00 0.00 0.00 83 1015.8
20260505060651 51 158 0.9 1.7 0.00 0.00 0.00 82 1015.6
20260505060148 51 152 1.7 1.7 0.00 0.00 0.00 80 1015.7
20260505055643 52 133 2.6 2.6 0.00 0.00 0.00 80 1015.5
20260505055140 52 160 0.9 1.7 0.00 0.00 0.00 80 1015.8
20260505054638 52 159 2.6 2.6 0.00 0.00 0.00 78 1015.5
20260505054136 52 149 1.7 1.7 0.00 0.00 0.00 78 1015.9
20260505053633 52 141 2.6 2.6 0.00 0.00 0.00 80 1015.8
20260505053129 53 141 1.7 1.7 0.00 0.00 0.00 77 1015.7
20260505052626 53 139 0.0 0.0 0.00 0.00 0.00 77 1015.7
20260505052124 53 163 1.7 1.7 0.00 0.00 0.00 78 1015.6
20260505051621 53 144 1.7 1.7 0.00 0.00 0.00 76 1015.3
20260505051119 53 166 1.7 1.7 0.00 0.00 0.00 77 1015.6
20260505050616 52 152 1.7 1.7 0.00 0.00 0.00 78 1015.7
20260505050114 52 156 2.6 2.6 0.00 0.00 0.00 78 1015.8
20260505041544 59 176 0.9 1.7 0.00 0.00 0.00 62 1015.6
20260505041041 59 175 1.7 1.7 0.00 0.00 0.00 61 1015.5
20260505040538 60 177 1.7 1.7 0.00 0.00 0.00 64 1015.8
20260505040036 60 149 0.0 0.0 0.00 0.00 0.00 59 1015.7
20260505035531 60 166 0.9 0.9 0.00 0.00 0.00 60 1015.6
20260505035028 60 168 0.9 0.9 0.00 0.00 0.00 58 1015.7
20260505034525 61 159 1.7 1.7 0.00 0.00 0.00 63 1015.7
20260505034022 61 195 2.6 2.6 0.00 0.00 0.00 60 1015.8
20260505033519 61 195 1.7 1.7 0.00 0.00 0.00 57 1015.9
20260505033017 62 177 1.7 1.7 0.00 0.00 0.00 59 1016.2
20260505032514 63 254 0.9 0.9 0.00 0.00 0.00 54 1016.0
20260505032010 61 197 2.6 2.6 0.00 0.00 0.00 59 1016.3
20260505031508 61 221 1.7 1.7 0.00 0.00 0.00 55 1016.4
20260505031004 61 163 0.9 1.7 0.00 0.00 0.00 57 1016.2
20260505030501 61 170 1.7 1.7 0.00 0.00 0.00 62 1015.9
20260505025955 61 158 1.7 1.7 0.00 0.00 0.00 58 1016.0
20260505025453 61 173 0.0 0.0 0.00 0.00 0.00 57 1016.0
20260505024952 61 174 0.9 0.9 0.00 0.00 0.00 58 1016.2
20260505024449 62 178 0.9 0.9 0.00 0.00 0.00 55 1015.9
20260505023946 62 175 0.9 0.9 0.00 0.00 0.00 56 1016.0
20260505023443 62 160 1.7 1.7 0.00 0.00 0.00 55 1016.2
20260505022940 61 238 0.0 0.9 0.00 0.00 0.00 56 1016.0
20260505022438 62 263 0.9 0.9 0.00 0.00 0.00 56 1016.0
20260505021935 62 196 0.0 0.9 0.00 0.00 0.00 55 1015.9
20260505021431 62 235 1.7 1.7 0.00 0.00 0.00 55 1015.6
20260505020927 62 168 0.0 0.0 0.00 0.00 0.00 55 1016.0
20260505020422 62 156 0.9 1.7 0.00 0.00 0.00 55 1015.8
20260505015919 63 149 0.0 0.0 0.00 0.00 0.00 55 1015.7
20260505015417 62 104 0.0 0.0 0.00 0.00 0.00 54 1015.9
20260505014914 63 89 0.0 0.0 0.00 0.00 0.00 54 1015.4
20260505014411 63 123 0.0 0.0 0.00 0.00 0.00 53 1015.3
20260505013908 64 119 0.0 0.0 0.00 0.00 0.00 52 1015.5
20260505013404 64 99 0.0 0.9 0.00 0.00 0.00 52 1015.4
20260505012903 64 107 0.0 0.0 0.00 0.00 0.00 53 1015.4
20260505012400 64 135 0.9 0.9 0.00 0.00 0.00 54 1015.5
20260505011856 64 110 0.0 0.0 0.00 0.00 0.00 54 1015.4
20260505011353 64 164 0.9 1.7 0.00 0.00 0.00 54 1015.2
20260505010849 64 176 1.7 1.7 0.00 0.00 0.00 55 1015.5
20260505010345 65 122 0.9 0.9 0.00 0.00 0.00 54 1015.4
20260505005842 65 64 0.9 0.9 0.00 0.00 0.00 54 1015.3
20260505005338 65 95 0.9 0.9 0.00 0.00 0.00 53 1015.1
20260505004836 65 261 0.9 0.9 0.00 0.00 0.00 56 1015.1
20260505004332 65 200 1.7 1.7 0.00 0.00 0.00 54 1015.3
20260505003830 65 282 0.9 1.7 0.00 0.00 0.00 55 1015.0
20260505003327 65 103 0.0 0.0 0.00 0.00 0.00 57 1015.1
20260505002822 65 52 0.9 1.7 0.00 0.00 0.00 57 1015.0
20260505002320 65 59 0.0 0.0 0.00 0.00 0.00 56 1015.0
20260505001818 66 71 0.9 0.9 0.00 0.00 0.00 56 1015.0
20260505001315 66 98 0.0 0.0 0.00 0.00 0.00 55 1014.8
20260505000812 67 289 0.9 1.7 0.00 0.00 0.00 54 1014.9
20260505000310 67 346 2.6 2.6 0.00 0.00 0.00 53 1015.0
20260504235806 68 170 0.0 0.0 0.00 0.00 0.00 53 1014.8
20260504235304 68 99 0.9 0.9 0.00 0.00 0.00 54 1014.7
20260504234800 69 322 0.9 1.7 0.00 0.00 0.00 51 1014.5
20260504234258 69 49 0.0 0.0 0.00 0.00 0.00 51 1014.7
20260504233753 69 312 0.9 1.7 0.00 0.00 0.00 51 1014.7
20260504233249 69 195 0.9 0.9 0.00 0.00 0.00 51 1014.5
20260504232746 69 230 2.6 2.6 0.00 0.00 0.00 50 1014.5
20260504232243 69 190 1.7 1.7 0.00 0.00 0.00 50 1014.4
20260504231740 69 215 1.7 2.6 0.00 0.00 0.00 50 1014.2
20260504231237 69 232 0.9 0.9 0.00 0.00 0.00 50 1014.2
20260504230732 69 282 2.6 2.6 0.00 0.00 0.00 48 1014.2
20260504230231 70 268 1.7 1.7 0.00 0.00 0.00 47 1014.2
20260504225730 70 205 1.7 2.6 0.00 0.00 0.00 47 1014.1
20260504225226 71 245 3.5 4.3 0.00 0.00 0.00 46 1014.1
20260504224723 71 240 1.7 2.6 0.00 0.00 0.00 47 1014.3
20260504224220 71 177 3.5 4.3 0.00 0.00 0.00 47 1014.3
20260504223716 72 193 2.6 2.6 0.00 0.00 0.00 46 1014.4
20260504223212 72 240 1.7 1.7 0.00 0.00 0.00 45 1014.1
20260504222709 72 299 0.9 0.9 0.00 0.00 0.00 46 1014.4
20260504222206 73 254 4.3 5.2 0.00 0.00 0.00 44 1014.2
20260504221703 73 269 2.6 5.2 0.00 0.00 0.00 44 1014.5
20260504221200 73 243 4.3 6.1 0.00 0.00 0.00 43 1014.1
20260504220656 73 267 2.6 5.2 0.00 0.00 0.00 43 1014.0
20260504220154 73 168 1.7 2.6 0.00 0.00 0.00 42 1014.0
20260504215651 75 265 5.2 7.8 0.00 0.00 0.00 42 1014.1
20260504215148 75 296 2.6 4.3 0.00 0.00 0.00 42 1014.1
20260504214643 74 208 1.7 1.7 0.00 0.00 0.00 42 1013.8
20260504214140 74 218 2.6 2.6 0.00 0.00 0.00 43 1014.0
20260504213637 75 43 0.9 0.9 0.00 0.00 0.00 40 1014.0
20260504213134 76 152 1.7 2.6 0.00 0.00 0.00 40 1014.0
20260504212630 76 50 0.0 0.9 0.00 0.00 0.00 43 1013.8
20260504212127 76 238 2.6 2.6 0.00 0.00 0.00 38 1014.0
20260504211625 76 184 3.5 5.2 0.00 0.00 0.00 37 1013.6
20260504211121 76 275 3.5 4.3 0.00 0.00 0.00 38 1014.0
20260504210619 77 275 2.6 2.6 0.00 0.00 0.00 35 1013.7
20260504210115 77 148 1.7 2.6 0.00 0.00 0.00 35 1013.5
20260504205613 76 205 1.7 1.7 0.00 0.00 0.00 32 1013.8
20260504205110 78 319 0.9 0.9 0.00 0.00 0.00 30 1013.7
20260504204608 78 31 0.9 1.7 0.00 0.00 0.00 32 1013.9
20260504204107 78 281 0.9 2.6 0.00 0.00 0.00 34 1013.6
20260504203605 77 296 0.0 0.9 0.00 0.00 0.00 33 1013.8
20260504203102 78 291 0.9 0.9 0.00 0.00 0.00 33 1013.8
20260504202557 79 257 2.6 2.6 0.00 0.00 0.00 35 1013.8
20260504202054 78 213 0.9 0.9 0.00 0.00 0.00 36 1013.7
20260504201551 77 242 2.6 4.3 0.00 0.00 0.00 29 1013.8
20260504201049 80 282 4.3 5.2 0.00 0.00 0.00 31 1013.9
20260504200545 80 152 0.9 1.7 0.00 0.00 0.00 33 1014.0
20260504200042 79 44 0.9 0.9 0.00 0.00 0.00 32 1013.9
20260504195538 78 99 0.9 1.7 0.00 0.00 0.00 41 1013.9
20260504195035 78 24 0.9 1.7 0.00 0.00 0.00 37 1014.3
20260504194531 75 172 0.9 0.9 0.00 0.00 0.00 36 1014.2
20260504194027 76 131 1.7 2.6 0.00 0.00 0.00 38 1014.2
20260504193524 76 154 0.9 0.9 0.00 0.00 0.00 35 1014.4
20260504193023 77 314 0.9 0.9 0.00 0.00 0.00 35 1014.2
20260504192520 77 33 0.9 1.7 0.00 0.00 0.00 35 1014.3
20260504192018 78 241 1.7 1.7 0.00 0.00 0.00 38 1014.4
20260504191516 79 343 1.7 1.7 0.00 0.00 0.00 43 1014.5
20260504191012 78 279 0.9 0.9 0.00 0.00 0.00 37 1014.8
20260504190508 78 158 1.7 1.7 0.00 0.00 0.00 38 1014.4
20260504190004 77 88 0.0 0.0 0.00 0.00 0.00 38 1014.5
20260504185501 78 41 0.9 2.6 0.00 0.00 0.00 42 1015.0
20260504184957 78 318 0.0 0.9 0.00 0.00 0.00 39 1015.0
20260504184453 75 10 0.9 0.9 0.00 0.00 0.00 43 1015.2
20260504183949 76 92 1.7 1.7 0.00 0.00 0.00 44 1015.5
20260504183446 76 118 0.9 1.7 0.00 0.00 0.00 45 1015.4
20260504182944 76 165 0.9 0.9 0.00 0.00 0.00 41 1015.6
20260504182441 75 84 0.0 0.0 0.00 0.00 0.00 48 1015.4
20260504181938 75 19 1.7 2.6 0.00 0.00 0.00 51 1015.6
20260504181435 73 132 0.9 0.9 0.00 0.00 0.00 47 1015.6
20260504180934 73 301 0.9 0.9 0.00 0.00 0.00 42 1015.7
20260504180432 73 201 1.7 1.7 0.00 0.00 0.00 43 1015.8
20260504175930 75 191 1.7 1.7 0.00 0.00 0.00 39 1015.9
20260504175427 74 11 1.7 1.7 0.00 0.00 0.00 40 1015.7
20260504174925 71 56 0.0 0.9 0.00 0.00 0.00 42 1016.3
20260504174422 74 60 2.6 2.6 0.00 0.00 0.00 43 1016.0
20260504173919 72 271 1.7 1.7 0.00 0.00 0.00 45 1016.3
20260504173415 72 169 0.9 0.9 0.00 0.00 0.00 49 1016.2
20260504172913 71 19 3.5 5.2 0.00 0.00 0.00 45 1016.3
20260504172409 71 76 0.0 0.9 0.00 0.00 0.00 48 1016.4
20260504171905 71 261 2.6 4.3 0.00 0.00 0.00 45 1016.5
20260504171403 73 307 2.6 2.6 0.00 0.00 0.00 48 1016.5
20260504170859 70 180 0.0 0.9 0.00 0.00 0.00 48 1016.6
20260504170356 70 292 4.3 5.2 0.00 0.00 0.00 44 1016.6
20260504160315 67 31 3.5 5.2 0.00 0.00 0.00 50 1017.8
20260504150739 60 81 0.0 0.0 0.00 0.00 0.00 55 1018.6
20260504150236 59 200 0.9 0.9 0.00 0.00 0.00 56 1018.7
20260504141206 53 286 0.9 0.9 0.00 0.00 0.00 70 1018.8
20260504140703 52 324 0.9 0.9 0.00 0.00 0.00 73 1019.0
20260504140158 51 346 0.0 0.0 0.00 0.00 0.00 74 1018.8